Flag for Germany Weather past 2 weeks in Leer, Lower Saxony, Germany

Now
69 °F

Overcast.


Feels Like: 69 °F
Forecast: 55 / 62 °F
Wind: 6 mph from West

Location: Emden-Koenigspolder

Current Time: Aug 29, 2014 at 4:20:10 PM

Latest Report: Aug 29, 2014 at 4:00 PM


Visibility: 16 mi

Pressure: 29.92 "Hg

Humidity: 64%

Dew point: 56 °F

Location of LeerLocation

Historic Weather in Leer — Graph

°F

Leer temperature yesterday

Maximum temperature yesterday: 74 °F (at 3:00 PM)
Minimum temperature yesterday: 48 °F (at 6:00 AM)
Average temperature yesterday: 60 °F

Past Weeks' High & Low Weather Summary

 TemperatureHumidityPressure
High74 °F (Aug 28, 3:00 PM)100% (Aug 28, 8:00 AM)30.04 "Hg (Aug 28, 8:00 AM)
Low43 °F (Aug 26, 5:00 AM)50% (Aug 26, 2:00 PM)29.44 "Hg (Aug 18, 10:00 AM)
Average57 °F82%29.84 "Hg
* Reported Aug 14 3:00 PM — Aug 29 3:00 PM, Leer, Weather by CustomWeather, © 2014

Note: Actual official high and low records may vary slightly from our data, if they occured in-between our weather recording intervals... More about our weather records

Advertising

Leer weather history for previous 24 hours

 ConditionsComfort  
Time TempWeatherWind HumidityBarometerVisibility
3:00 PM
Aug 29
69 °FPartly sunny.7 mph59%29.92 "Hg19 mi
2:00 PM71 °FPartly sunny.6 mph59%29.91 "Hg9 mi
1:00 PM68 °FScattered clouds.6 mph68%29.91 "Hg14 mi
12:00 PM65 °FOvercast.6 mph75%29.91 "Hg12 mi
10:00 AM61 °FLow clouds.5 mph91%29.90 "Hg5 mi
9:00 AM62 °FLow clouds.5 mph88%29.89 "Hg7 mi
8:00 AM62 °FLow clouds.3 mph92%29.88 "Hg6 mi
7:00 AM62 °FLow clouds.5 mph92%29.88 "Hg5 mi
6:00 AM62 °FLow clouds.3 mph91%29.88 "Hg6 mi
5:00 AM63 °FLow clouds.3 mph91%29.88 "Hg8 mi
4:00 AM63 °FOvercast.2 mph92%29.88 "Hg8 mi
3:00 AM63 °FOvercast.3 mph91%29.88 "Hg7 mi
2:00 AM65 °FOvercast.3 mph87%29.88 "Hg10 mi
1:00 AM64 °FOvercast.2 mph87%29.88 "Hg9 mi
12:00 AM64 °FOvercast.3 mph86%29.89 "Hg9 mi
10:00 PM
Aug 28
63 °FOvercast.3 mph92%29.90 "Hg6 mi
9:00 PM63 °FOvercast.5 mph92%29.90 "Hg6 mi
8:00 PM65 °FDrizzle. Low clouds.5 mph85%29.91 "Hg11 mi
7:00 PM69 °FDrizzle. Overcast.5 mph68%29.91 "Hg15 mi
6:00 PM71 °FOvercast.3 mph62%29.91 "Hg22 mi
4:00 PM74 °FScattered clouds.5 mph60%29.92 "Hg17 mi
Weather by CustomWeather, © 2014

See weather overviewHow to use our weather pages